Showing default

TIGRISAT, 40043

Orbit data source: Space-Track

TIGRISAT, 40043 is an Iraqi payload satellite in SSO that was launched on Thu, 19 Jun 2014 UTC via a DNEPR launch vehicle from the Orenburg, Russia (OREN). Payload-class satellites include a variety of spacecraft equipped with specific instruments for various scientific and technological missions. These include communications satellites like Starlink; space stations such as the ISS; scientific satellites like the Hubble; Earth observation satellites from companies like Planet Labs, Umbra, and HawkEye 360; GPS; miniature CubeSats for education and research; and military/defense satellites.

Loading next visibility...
Identifier
40043, 2014-033AK
Orbit
SSO
Country
Flag of UnknownUnknown / IRAQ
Related business
Manufacturer
Roma La Sapienza
Mission
Operational Civil Technology
Bus & Motor
CUBESAT 3U, Unknown motor
Mass
3.6 kg wet, 3.6 kg dry
Launch date (UTC)
2014-06-19 (11 years ago)
Launch vehicle
DNEPR
Launch site
Orenburg, Russia (OREN)
Object type
Payload
Rocket body
Debris
Shape & HBR
Box, 0.1 m
Radar Cross Section
0.075 m², Small (<0.1 m²)

Expand to show TLE details & history
Last TLE update: 13 hours ago

TLE from 13 hours ago
0 TIGRISAT
1 40043U 14033AK  25299.36663427  .00003934  00000-0  47038-3 0  9990
2 40043  97.7540  90.4013 0051663 120.9199 239.7108 14.83771679610936
Epoch: 2025-10-26T08:47Z
TLE epoch observation values (Epoch: 2025-10-26T08:47:57.200Z)
Latitude
-0.00014°
Longitude
-76.57087°
Altitude
638.846 km
Speed
7.529 km/s
True Right ascension
06h 01m 36s
True Declination
0° 00' 01"
Sunlit
Object was in full shadow at epoch
Visualization orbit readout
Latitude
Unknown
Longitude
Unknown
Altitude
Unknown
Speed
Unknown
Apparent Right ascension
Unknown
Apparent Declination
Unknown
Sunlit
N/A
Visualization observer readout
Local Sidereal Time
17:14:13
Azimuth
Unknown
Elevation
Unknown
Doppler factor
Unknown
Orbital elements
Apogee altitude
650.599 km
Perigee altitude
578.347 km
Semi-major axis
6,992.61 km
Eccentricity
0.00517
Inclination
97.754°
RAAN
90.4013°
Arg. of periapsis
120.9199°
True anomaly
239.20127°
Mean anomaly
239.7108°
Eccentric anomaly
239.45587°
Mean motion
3.7118 °/min
Orbital period
96.99 mins
BSTAR
0.00047038
Loading maneuver chart data...
Computing Atmospheric mass density...
Loading historical data...
Loading historical data...
Loading historical data...
Loading historical data...
Loading historical data...
Loading historical data...
Loading historical data...

Documentation

Showing up to 5 results
|